Location: Gälforsberget
(66.6500°N, 22.4167°E)
Time: 10:06:06
(UTC+00:00)

Cosmos 2333 - Pass Details

Date: 11 April 2026
Orbit: 829 x 864 km, 70.9° (Epoch: 19 May)

Event Time Altitude Azimuth Distance (km) Brightness Sun altitude
Rises 20:56:39 0° 247° (WSW) 3,373 7.4 -12.8°
Reaches altitude 10° 20:59:06 10° 250° (WSW) 2,442 6.7 -12.9°
Maximum altitude 21:04:42 72° 335° (NNW) 883 4.5 -13.1°
Drops below altitude 10° 21:10:20 10° 60° (ENE) 2,461 6.7 -13.4°
Sets 21:12:49 0° 63° (ENE) 3,402 7.4 -13.4°
